COSMOS 1275 DEB, 12672

Orbit data source: Space-Track

COSMOS 1275 DEB, 12672 is space debris in LEO originally from a launch on Thu, 04 Jun 1981 UTC launched from the Plesetsk Missile And Space Complex (PKMTR). Debris objects in space refer to the collection of defunct objects orbiting the Earth. Examples of debris include non-operational satellites, rocket bodies, and fragments generated from explosions, collisions, or faulty payload assembly.

Loading next visibility...
COSMOS 1275 DEB details
Identifier
12672, 1981-053AC
Orbit
LEO
Last TLE update9 hours ago
Origin
Flag of CISVMF (CIS)
ManufacturerUnknown
MissionSpacecraft
Bus & MotorUnknown
MassUnknown
Launch date (UTC)
1981-06-04 (44 years ago)
Launch vehicleUnknown
Launch site
Plesetsk Missile And Space Complex (PKMTR)
Object type
Payload
Rocket body
Debris
Shape & HBRUnknown
Radar Cross SectionMedium (>0.1 m² and <1 m²)

Expand to show TLE details & history

TLE from 9 hours ago
0 COSMOS 1275 DEB
1 12672U 81053AC  25025.45901334  .00001377  00000-0  12346-2 0  9994
2 12672  82.9429 191.9424 0027741 254.8763 122.9417 13.83419451188192
Epoch: 2025-01-25T11:00Z
Definitive object data (Epoch: 2025-01-25T11:00:58.752Z)
Latitude17.93403°
Longitude-96.02564°
Altitude965.235 km
Speed7.365 km/s
True Right ascension12h 56m 54s
True Declination17° 50' 11"
Sunlit
Object was in daylight at TLE epoch
Visualization TLE readout
Latitude79.44731°
Longitude40.02367°
Altitude983.655 km
Speed7.357 km/s
Apparent Right ascension09h 12m 43s
Apparent Declination41° 23' 17"
Sunlit
Object is in daylight
Visualization observer readout
Local Sidereal Time21:25:59
Azimuth2.515° NNE
Elevation-8.64°
Doppler factor1
Orbital elements
Apogee altitude969.246 km
Perigee altitude928.594 km
Semi-major axis7,327.057 km
Eccentricity0.0027741
Inclination82.9429°
RAAN191.9424°
Arg. of periapsis254.8763°
True anomaly123.20798°
Mean anomaly122.9417°
Eccentric anomaly123.07489°
Mean motion3.46058 °/min
BSTAR0.0012346
Orbital period104.03 mins
Loading maneuver chart data...
Loading historical data...
Loading historical data...
Loading historical data...
Loading historical data...
Loading historical data...
Loading historical data...
Loading historical data...

COSMOS 1275 DEB Visibility forecast

Observer location: undefined°, undefined

Span
Click to sort rows by Start time (UTC) header in descending order
Start Az.
Max El. time (UTC)
Max El. Az.
Max El.
End time (UTC)
End Az.
9 mins2025-01-25 21:55:56.298Z17.922° NNE2025-01-25 22:00:56.298Z80.295° E26.198°2025-01-25 22:04:56.298Z128.071° SE
10 mins2025-01-25 23:40:56.298Z332.421° NNW2025-01-25 23:45:56.298Z260.644° W31.815°2025-01-25 23:50:56.298Z205.416° SW
10 mins2025-01-26 11:20:56.298Z169.071° S2025-01-26 11:24:56.298Z117.386° SE41.249°2025-01-26 11:30:56.298Z14.595° NNE
7 mins2025-01-26 13:07:56.298Z258.466° W2025-01-26 13:10:56.298Z292.536° NW17.971°2025-01-26 13:14:56.298Z333.702° NNW
|